Find Milstar 5

NORAD ID: 27168 Int'l Des: 2002-001 Owner: AFSMC Country: US operational
HEOCIRCULARGSO

Current View

Loading 3D Globe...

About Milstar 5

Description loading...

Upcoming Passes

Passes for default location (London). Set your location on the main map for personalized predictions.

Altitude History

Loading altitude history...

Two-Line Element Set

1 27168U 02001A 26150.79210793 .00000101 00000-0 00000+0 0 9990
2 27168 11.1594 22.0156 0099946 7.9531 162.4088 1.00271648 32783
Epoch: May 30, 2026 • Age: 7 hours

Current Status

Altitude 35829.5 km
Velocity 3.07 km/s
Sub-Earth Point -11.17°S, 17.82°E
Launch Date Jan 16, 2002
Age 24.3 years
Type other

Technical Details

Classification Payload
Mass 4500.00 kg
Dry Mass 4200.00 kg
Total Mass 4500.00 kg
Length 15.50 m
Diameter 5.00 m
Span 35.00 m
Shape Truss + Ant
Manufacturer LMMS
Bus Type Milstar
Phase Status In Orbit
Owner/State AFSMC/US

Most Searched